Weather History for KSZL - November, 2012

Change the Weather History Date:

Tuesday, November 20, 2012

  Actual Average Record
Temperature  
Mean Temperature 50 °F -  
Max Temperature 62 °F 51 °F 74 °F (2007)
Min Temperature 37 °F 34 °F 13 °F (2014)
Degree Days  
Heating Degree Days 16    
Moisture  
Dew Point 43 °F    
Average Humidity 86    
Maximum Humidity 100    
Minimum Humidity 55    
Precipitation  
Precipitation 0.00 in - - ()
Sea Level Pressure  
Sea Level Pressure 30.18 in    
Wind  
Wind Speed 5 mph (NW)    
Max Wind Speed 9 mph    
Max Gust Speed -    
Visibility 7 miles    
Events      
Averages and records for this station are not official NWS values.
T = Trace of Precipitation, MM = Missing Value Source: NWS Daily Summary

Daily Weather History Graph

Daily Weather History Graph

Search for Another Location

Airport or City:

Trip Planner

Search our weather history database for the weather conditions in past years. The results will help you decide how hot, cold, wet, or windy it might be!

Date:

Astronomy

Nov. 20, 2012 Rise Set
Actual Time 7:02 AM CST 4:57 PM CST
Civil Twilight 6:33 AM CST 5:25 PM CST
Nautical Twilight 6:01 AM CST 5:58 PM CST
Astronomical Twilight 5:29 AM CST 6:29 PM CST
Moon 12:39 PM CST (11/20) No Moon Set
Length of Visible Light 10h 52m
Length of Day
9h 54m
First Quarter, 51% of the Moon is Illuminated
Nov 20
First Quarter
Nov 28
Full
Dec 6
Last Quarter
Dec 13
New
Dec 19
First Quarter

Hourly Weather History & Observations

Time (CST) Temp. Windchill Dew Point Humidity Pressure Visibility Wind Dir Wind Speed Gust Speed Precip Events Conditions
12:55 AM 49.1 °F - 48.7 °F 99% 30.10 in 10.0 mi WSW 6.9 mph - N/A   Clear
1:55 AM 46.9 °F - 46.9 °F 100% 30.10 in 10.0 mi WSW 4.6 mph - N/A   Clear
2:55 AM 44.8 °F 41.6 °F 44.8 °F 100% 30.11 in 10.0 mi WSW 5.8 mph - N/A   Clear
3:55 AM 44.1 °F 40.1 °F 44.1 °F 100% 30.11 in 10.0 mi West 6.9 mph - N/A   Clear
4:55 AM 44.2 °F 41.0 °F 44.2 °F 100% 30.13 in 10.0 mi NW 5.8 mph - N/A   Clear
5:55 AM 42.6 °F 39.0 °F 42.6 °F 100% 30.14 in 10.0 mi West 5.8 mph - N/A   Clear
6:55 AM 43.5 °F 38.9 °F 43.3 °F 99% 30.16 in 10.0 mi WNW 8.1 mph - N/A   Clear
7:55 AM 45.5 °F 41.3 °F 43.3 °F 92% 30.17 in 10.0 mi WNW 8.1 mph - N/A   Clear
8:55 AM 47.8 °F - 43.0 °F 83% 30.19 in 10.0 mi WNW 8.1 mph - N/A   Clear
9:55 AM 50.2 °F - 43.3 °F 77% 30.19 in 10.0 mi WNW 6.9 mph - N/A   Clear
10:55 AM 53.6 °F - 44.2 °F 71% 30.19 in 10.0 mi NW 5.8 mph - N/A   Clear
11:55 AM 57.6 °F - 45.0 °F 63% 30.18 in 5.0 mi NNW 8.1 mph - N/A   Haze
12:55 PM 60.6 °F - 45.0 °F 56% 30.16 in 4.0 mi NNW 9.2 mph - N/A   Haze
1:19 PM 62.6 °F - 46.4 °F 55% 30.16 in 10.0 mi NNW 9.2 mph - N/A   Clear
1:55 PM 62.1 °F - 45.9 °F 55% 30.15 in 10.0 mi North 5.8 mph - N/A   Clear
2:55 PM 62.4 °F - 45.9 °F 55% 30.15 in 10.0 mi NNW 6.9 mph - N/A   Clear
3:55 PM 61.5 °F - 46.2 °F 57% 30.17 in 7.0 mi North 6.9 mph - N/A   Clear
4:55 PM 57.7 °F - 45.5 °F 64% 30.17 in 10.0 mi NW 4.6 mph - N/A   Clear
5:55 PM 52.2 °F - 44.6 °F 75% 30.19 in 10.0 mi Calm Calm - N/A   Clear
6:55 PM 49.3 °F - 45.3 °F 86% 30.20 in 4.0 mi Calm Calm - N/A   Haze
7:55 PM 46.2 °F - 45.9 °F 99% 30.21 in 2.5 mi Calm Calm - N/A   Clear
8:55 PM 43.5 °F - 43.2 °F 99% 30.22 in 5.0 mi Calm Calm - N/A   Clear
9:55 PM 43.7 °F - 43.5 °F 99% 30.23 in 5.0 mi Calm Calm - N/A   Clear
10:45 PM 37.4 °F - 37.4 °F 100% 30.23 in 2.5 mi Calm Calm - N/A   Clear
10:55 PM 37.8 °F - 37.6 °F 99% 30.23 in 2.0 mi Calm Calm - N/A   Clear
11:28 PM 37.4 °F - 37.4 °F 100% 30.23 in 2.5 mi Calm Calm - N/A   Clear
11:29 PM 37.4 °F - 37.4 °F 100% 30.23 in 2.5 mi Calm Calm - N/A   Clear
11:38 PM 37.4 °F - 37.4 °F 100% 30.23 in 3.0 mi Calm Calm - N/A   Clear
11:55 PM 37.8 °F - 37.8 °F 100% 30.23 in 5.0 mi Calm Calm - N/A   Clear